SCP
0 0 0 0 0 0 0 0 0 0 0 0 0 0 0 0 0 0 0 0 0 0 0 0 0 0 0 0 0 0 0 0 0 0 0 0 -0 0 0 0 0 0 0 0
0 0 0 0 0 0 0 0 0 0 0 0 0 0 0 0 0 0 0 0 0 0 0 0 0 0 0 0 0 0 0 0 0 0 0 -0 -0 -0 -0 -0 0 0 0 0
0 0 0 0 0 0 0 0 0 0 0 0 0 0 0 0 0 0 0 0 0 0 0 0 0 0 0 0 0 0 0 0 0 0 0 -0 -0 -0 0 0 0 0 0 0
0 0 0 0 0 0 0 0 0 0 0 0 0 0 0 0 0 0 0 0 0 0 0 0 0 0 0 0 0 0 0 0 0 0 0 0 -0 -0 -0 -0 0 0 0 0
0 0 0 0 0 0 0 0 0 0 0 0 0 0 0 0 0 0 0 0 0 0 0 0 0 0 0 0 0 0 0 0 0 0 -0 -0 -0 -0 -0 -0 0 0 0 0
0 0 0 0 0 0 0 0 0 0 0 0 0 0 0 0 0 0 0 0 0 0 0 0 0 0 0 0 0 0 -0 -0 -0 -0 -0 -0 -0 -0 0 0 0 0 0 0
0 0 0 0 0 0 0 0 0 0 0 0 0 0 0 0 0 0 0 0 0 0 0 0 0 0 0 0 -0 -0 -0 -0 -0 -0 -0 -0 -0 -0 -0 0 0 0 0 0
0 0 0 0 0 0 0 0 0 0 0 0 0 0 0 0 0 0 0 0 0 0 0 0 0 0 0 -0 -0 -0 -0 -0 -0 -0 -0 -0 -0 -0 -0 0 0 0 0 0
0 0 0 0 0 0 0 0 0 0 0 0 0 0 0 0 0 0 0 0 0 0 0 0 0 0 0 -0 -0 -0 0 0 0 0 0 -0 -0 0 0 0 0 0 0 0
0 0 0 0 0 0 0 0 0 0 0 0 0 0 0 0 0 0 0 0 0 0 0 0 0 0 0 0 0 0 0 0 0 0 0 0 0 0 0 0 0 0 0 0
0 0 0 0 0 0 0 0 0 0 0 0 0 0 0 0 0 0 0 0 0 0 0 0 0 0 0 0 0 0 0 0 0 0 0 0 0 0 0 0 0 0 0 0
0 0 0 0 0 0 0 0 0 0 0 0 0 0 0 0 0 0 0 0 0 0 0 0 0 0 0 0 0 0 0 0 0 0 0 0 0 0 0 0 0 0 0 0
0 0 0 0 0 0 0 0 0 0 0 0 0 0 0 0 0 0 0 0 0 0 0 0 0 0 0 0 0 0 0 0 0 0 0 0 0 0 0 0 0 0 0 0
0 0 0 0 0 0 0 0 0 0 0 0 0 0 0 0 0 0 0 0 0 0 0 0 0 0 0 0 0 0 0 0 0 0 0 0 0 0 0 0 0 0 0 0
0 0 0 0 0 0 0 0 0 0 0 0 0 0 0 0 0 0 0 0 0 0 0 0 0 0 0 0 0 0 0 0 0 0 0 0 0 0 0 0 0 0 0 0
0 0 0 0 0 0 0 0 0 0 0 0 0 0 0 0 0 0 0 0 0 0 0 0 0 0 0 0 0 0 0 0 0 0 0 0 0 0 0 0 0 0 0 0
0 0 0 0 0 0 0 0 0 0 0 0 0 0 0 0 0 0 0 0 0 0 0 0 0 0 0 0 0 0 0 0 0 0 0 0 0 0 0 0 0 0 0 0
0 0 0 0 0 0 0 0 0 0 0 0 0 0 0 0 0 0 0 0 0 0 0 0 0 0 0 0 0 0 0 0 0 0 0 0 0 0 0 0 0 0 0 0
0 0 0 0 0 0 0 0 0 0 0 0 0 0 0 0 0 0 0 0 0 0 0 0 0 0 0 0 0 0 0 0 0 0 0 0 0 0 0 0 0 0 0 0
0 0 0 0 0 0 0 0 0 0 0 0 0 0 0 0 0 0 -0 -0 0 0 0 0 0 0 0 0 0 0 0 0 0 0 0 0 0 0 0 0 0 0 0 0
0 0 0 0 0 0 0 0 0 0 0 0 0 0 0 0 0 -0 -0 0 0 0 0 0 0 0 0 0 0 0 0 0 0 0 0 0 0 0 0 0 0 0 0 0
0 0 0 0 0 0 0 0 0 0 0 0 0 0 0 0 0 0 0 0 0 0 0 0 0 0 0 0 0 0 0 0 0 0 0 0 0 0 0 0 0 0 0 0
0 0 0 0 0 0 0 0 0 0 0 0 0 0 0 0 0 0 0 0 0 0 0 0 0 0 0 0 0 0 0 0 0 0 0 0 0 0 0 0 0 0 0 0
0 0 0 0 0 0 0 0 0 0 0 0 0 0 0 0 0 0 0 0 0 0 0 0 0 0 0 0 0 0 0 0 0 0 0 0 0 0 0 0 0 0 0 0
0 0 0 0 0 0 0 0 0 0 0 0 0 0 0 0 0 0 0 0 0 0 0 0 0 0 0 0 0 0 0 0 0 0 0 0 0 0 0 0 0 0 0 0
0 0 0 0 0 0 0 0 0 0 0 0 0 0 0 0 0 0 0 0 0 0 0 0 0 0 0 0 0 0 0 0 0 0 0 0 0 0 0 0 0 0 0 0
Wind_Speed_500mb
11 9 4 2 4 4 9 4 2 2 5 3 11 13 15 38 42 40 40 38 32 24 19 14 11 8 9 11 14 16 19 23 23 24 29 34 39 40 41 43 44 45 47 46
10 3 2 2 6 6 4 4 4 3 3 0 8 20 18 33 37 58 51 46 40 33 27 22 17 12 8 7 10 14 18 22 25 28 33 34 34 36 37 40 42 46 47 49
7 1 4 3 5 5 4 4 4 2 4 1 10 15 10 14 35 54 55 52 46 41 32 27 22 15 10 6 6 10 15 20 23 27 28 28 29 31 32 38 42 44 43 44
10 4 2 5 6 4 5 1 4 4 3 7 5 11 10 11 18 23 62 65 56 49 39 30 26 18 12 7 4 5 10 15 19 24 27 32 35 36 38 39 39 39 40 41
3 3 5 5 3 5 2 2 5 4 6 4 1 1 14 6 14 35 52 71 66 56 46 36 29 21 15 10 5 1 6 11 16 22 26 30 32 34 35 35 36 36 39 42
5 4 5 5 5 4 9 7 8 6 5 4 4 7 11 11 15 9 40 71 75 63 52 38 28 25 19 15 9 4 2 7 12 18 23 27 29 31 32 35 37 38 39 41
2 2 2 5 8 9 6 8 5 9 7 11 1 2 20 17 16 12 36 65 80 69 59 47 40 31 23 18 12 7 2 4 9 15 21 25 28 31 34 37 40 41 42 43
9 9 7 2 3 10 5 9 8 12 5 8 5 13 14 12 7 20 19 56 79 77 66 55 41 29 23 19 15 10 5 3 8 15 21 26 29 31 33 36 39 42 43 44
8 2 3 5 3 3 6 6 7 12 3 6 7 16 20 8 15 11 17 32 68 83 74 60 46 34 25 23 15 11 10 7 8 16 22 27 31 32 32 35 38 41 42 44
3 6 5 1 3 7 7 5 7 5 1 8 9 12 12 9 8 11 15 37 55 78 77 64 53 39 27 23 17 12 13 14 14 19 25 30 34 34 34 35 38 41 43 45
7 8 4 7 10 14 3 2 6 3 7 9 3 12 13 10 8 14 23 32 47 70 78 67 55 38 31 25 20 16 17 21 21 21 26 33 38 37 37 37 39 41 45 48
6 9 7 14 2 4 5 11 10 8 10 4 3 19 2 10 13 17 19 25 37 62 72 63 51 39 36 32 23 21 23 26 24 24 29 36 43 41 38 38 40 43 46 48
11 2 4 12 8 8 4 9 7 8 5 12 9 16 1 6 13 12 11 21 33 54 59 54 49 40 36 32 28 27 29 29 30 30 34 39 43 41 38 39 42 46 49 49
7 5 13 13 11 8 4 5 10 10 7 8 24 17 16 10 10 15 11 19 32 49 54 50 47 39 33 28 31 32 30 32 35 37 39 43 43 40 37 39 43 49 51 51
8 9 3 7 6 6 8 9 15 19 16 14 26 22 14 15 15 26 24 23 38 51 54 50 41 33 31 29 26 26 29 35 38 42 45 47 48 42 37 40 45 49 53 55
6 4 4 8 3 12 13 8 15 29 16 30 40 50 14 43 35 25 27 26 35 42 40 32 24 27 26 23 22 26 32 36 42 47 49 53 48 41 41 45 47 52 54 55
9 11 6 11 8 11 18 21 33 11 10 22 21 42 6 8 17 30 39 39 48 47 38 28 24 24 21 19 23 29 31 38 46 50 52 53 46 45 45 48 53 55 56 56
10 9 5 7 7 6 11 7 11 26 19 29 25 29 14 13 18 21 30 39 43 51 39 31 25 21 18 22 27 32 35 37 40 49 53 49 48 50 52 54 57 56 57 57
4 9 4 7 7 17 11 6 12 15 18 21 39 36 23 24 24 50 41 34 27 31 27 25 22 18 19 25 30 33 34 33 38 46 49 50 51 56 57 59 58 56 58 57
7 9 7 6 10 14 11 6 9 7 10 6 27 22 12 13 3 9 6 34 34 12 24 23 19 19 20 22 30 35 35 39 48 48 51 52 54 58 58 60 59 59 58 56
7 1 11 3 8 19 13 9 14 11 14 2 2 13 18 11 19 3 14 9 26 27 27 26 22 22 23 24 31 39 46 50 50 55 61 62 60 58 58 61 59 56 54 55
17 17 9 6 3 20 29 15 13 8 7 14 19 21 21 34 19 16 5 4 11 21 27 31 32 30 30 34 40 46 53 59 64 69 75 73 63 58 59 60 57 55 54 55
5 15 13 22 18 6 55 11 37 4 4 25 12 28 31 26 23 15 19 17 20 26 34 43 43 41 38 42 47 55 61 68 72 74 74 67 57 57 58 58 56 56 54 55
9 13 5 3 11 32 40 47 41 39 44 45 46 42 31 25 26 25 27 29 29 33 39 42 44 45 47 51 55 60 67 72 73 76 71 63 59 56 56 57 57 57 55 55
10 22 12 12 15 27 33 22 21 24 23 24 23 20 19 22 29 32 33 33 34 35 36 39 43 48 53 58 62 65 70 71 72 70 66 59 56 52 54 56 57 58 55 54
24 15 12 16 8 4 2 6 11 13 14 15 14 15 17 17 20 22 24 26 29 33 39 44 48 52 57 60 60 60 62 63 64 64 57 50 47 47 52 56 58 56 55 55
Wind_Direction_500mb
27 76 193 171 67 79 119 149 205 306 346 291 243 263 226 204 208 203 200 199 200 195 187 176 161 131 99 82 73 67 58 53 49 48 44 39 34 34 31 31 29 28 28 27
33 96 58 56 55 89 94 125 231 317 345 37 333 270 232 208 216 209 206 206 207 203 198 192 183 171 146 110 78 61 52 47 40 35 35 31 28 27 27 26 23 22 21 21
126 113 318 120 46 126 50 187 193 264 320 350 324 278 221 223 212 215 218 220 213 211 205 201 196 191 177 140 90 62 48 42 38 36 34 28 23 21 21 21 17 16 14 15
79 326 89 80 82 16 205 118 106 119 83 247 16 282 282 223 224 212 215 216 214 211 208 209 206 201 195 185 134 68 45 38 33 28 24 19 17 16 16 13 11 8 8 10
227 68 72 89 39 336 178 140 105 89 99 342 259 359 267 132 235 224 215 213 214 212 211 210 205 201 202 200 193 114 38 31 26 20 17 14 12 10 9 6 4 3 4 4
109 64 56 101 59 34 147 75 47 62 74 359 256 164 268 200 215 205 206 213 212 208 208 208 205 206 205 205 201 207 7 20 14 10 6 4 2 2 1 359 358 357 357 357
356 113 108 142 90 6 68 65 343 348 8 231 135 142 250 257 228 223 200 206 210 207 205 204 205 206 206 209 209 209 251 347 355 355 354 352 351 352 354 355 355 353 352 353
166 304 164 82 121 169 146 139 159 219 218 283 357 240 255 224 267 245 236 222 210 205 204 206 205 200 203 207 212 215 224 282 343 351 349 347 344 342 343 347 349 349 348 348
117 279 34 42 74 82 218 189 173 102 85 37 230 286 296 240 265 267 221 206 208 202 202 204 201 199 200 205 205 213 230 241 317 337 340 341 340 335 332 336 340 342 342 341
166 13 357 92 95 47 140 194 78 5 224 273 281 281 240 309 309 237 224 211 208 204 200 202 202 202 202 205 209 232 252 253 289 319 329 330 328 324 324 325 330 334 334 333
128 115 327 21 207 176 89 287 31 118 151 184 273 263 215 229 324 285 251 235 214 204 198 201 201 205 210 216 224 247 269 264 274 302 316 323 320 311 310 316 319 325 327 327
206 133 177 219 313 22 164 194 158 137 245 237 157 267 306 264 291 313 268 230 215 202 199 201 202 211 221 232 243 262 268 270 271 289 309 319 318 308 300 303 309 316 321 321
199 269 18 332 348 2 231 208 160 120 110 210 144 267 160 280 293 312 260 223 209 202 200 204 210 221 234 242 249 266 269 270 266 280 302 314 319 310 299 294 302 310 314 315
131 87 173 188 202 138 225 250 194 142 136 173 232 298 273 272 276 283 271 227 211 202 205 212 219 231 244 251 255 264 262 265 265 275 295 310 315 305 293 288 297 305 308 310
117 200 186 273 230 183 226 185 195 203 207 186 273 227 255 241 251 275 265 234 213 210 213 220 223 239 253 254 249 257 264 265 266 274 291 308 308 302 293 292 298 301 305 307
5 232 129 297 282 226 259 185 221 227 237 259 266 275 200 264 265 265 266 237 218 211 208 207 227 244 244 239 251 264 271 272 268 278 288 304 302 300 297 297 298 299 302 303
136 137 96 271 337 320 292 206 204 190 204 214 229 252 209 263 235 258 267 246 230 217 212 245 249 236 236 249 264 269 273 269 272 275 289 297 297 297 300 300 298 300 300 299
134 95 78 229 356 299 253 172 167 210 237 217 261 261 248 261 295 286 270 257 245 231 237 236 227 223 237 262 274 279 278 276 273 280 291 296 295 294 296 300 300 298 296 295
99 117 79 146 202 296 290 184 159 165 276 215 227 255 266 273 295 278 254 234 235 222 231 215 208 229 258 279 286 289 285 281 285 295 302 300 293 287 289 295 299 296 293 291
75 66 125 99 161 232 234 243 186 146 301 272 210 248 201 162 37 269 294 225 212 231 208 210 226 251 277 290 284 288 289 289 292 304 303 300 289 282 283 292 294 293 289 287
138 348 181 189 233 284 232 164 141 92 239 335 351 274 196 197 223 268 78 115 214 235 229 221 241 266 279 280 279 284 288 292 295 296 298 298 289 283 283 288 289 290 285 286
165 156 186 90 104 282 163 117 178 216 103 43 23 356 284 269 276 193 184 240 240 245 234 235 248 257 267 279 282 284 290 296 297 298 300 299 286 278 280 285 285 284 282 284
245 187 183 188 207 245 185 214 214 151 292 329 319 330 324 296 222 247 249 251 255 252 245 248 253 258 266 277 285 289 294 296 297 298 300 296 283 275 278 280 281 279 281 284
252 170 200 108 232 230 235 238 253 273 285 285 285 293 288 271 256 259 266 273 273 271 265 263 268 273 278 284 292 297 300 300 300 300 299 292 280 276 275 277 279 279 280 282
171 143 185 265 277 274 262 264 271 283 276 276 288 285 279 272 270 276 279 279 280 282 282 286 291 293 296 298 299 301 302 302 301 299 296 288 280 274 273 276 278 275 275 278
184 183 186 244 163 175 155 279 313 303 313 316 312 300 295 295 292 293 295 293 293 293 293 294 297 300 300 301 303 305 304 304 302 298 296 287 278 274 274 276 273 272 276 279
Wind_Speed_850mb
11 9 4 2 4 4 9 4 2 2 5 3 11 13 15 38 42 40 40 38 32 24 19 14 11 8 9 11 14 16 19 23 23 24 29 34 39 40 41 43 44 45 47 46
10 3 2 2 6 6 4 4 4 3 3 0 8 20 18 33 37 58 51 46 40 33 27 22 17 12 8 7 10 14 18 22 25 28 33 34 34 36 37 40 42 46 47 49
7 1 4 3 5 5 4 4 4 2 4 1 10 15 10 14 35 54 55 52 46 41 32 27 22 15 10 6 6 10 15 20 23 27 28 28 29 31 32 38 42 44 43 44
10 4 2 5 6 4 5 1 4 4 3 7 5 11 10 11 18 23 62 65 56 49 39 30 26 18 12 7 4 5 10 15 19 24 27 32 35 36 38 39 39 39 40 41
3 3 5 5 3 5 2 2 5 4 6 4 1 1 14 6 14 35 52 71 66 56 46 36 29 21 15 10 5 1 6 11 16 22 26 30 32 34 35 35 36 36 39 42
5 4 5 5 5 4 9 7 8 6 5 4 4 7 11 11 15 9 40 71 75 63 52 38 28 25 19 15 9 4 2 7 12 18 23 27 29 31 32 35 37 38 39 41
2 2 2 5 8 9 6 8 5 9 7 11 1 2 20 17 16 12 36 65 80 69 59 47 40 31 23 18 12 7 2 4 9 15 21 25 28 31 34 37 40 41 42 43
9 9 7 2 3 10 5 9 8 12 5 8 5 13 14 12 7 20 19 56 79 77 66 55 41 29 23 19 15 10 5 3 8 15 21 26 29 31 33 36 39 42 43 44
8 2 3 5 3 3 6 6 7 12 3 6 7 16 20 8 15 11 17 32 68 83 74 60 46 34 25 23 15 11 10 7 8 16 22 27 31 32 32 35 38 41 42 44
3 6 5 1 3 7 7 5 7 5 1 8 9 12 12 9 8 11 15 37 55 78 77 64 53 39 27 23 17 12 13 14 14 19 25 30 34 34 34 35 38 41 43 45
7 8 4 7 10 14 3 2 6 3 7 9 3 12 13 10 8 14 23 32 47 70 78 67 55 38 31 25 20 16 17 21 21 21 26 33 38 37 37 37 39 41 45 48
6 9 7 14 2 4 5 11 10 8 10 4 3 19 2 10 13 17 19 25 37 62 72 63 51 39 36 32 23 21 23 26 24 24 29 36 43 41 38 38 40 43 46 48
11 2 4 12 8 8 4 9 7 8 5 12 9 16 1 6 13 12 11 21 33 54 59 54 49 40 36 32 28 27 29 29 30 30 34 39 43 41 38 39 42 46 49 49
7 5 13 13 11 8 4 5 10 10 7 8 24 17 16 10 10 15 11 19 32 49 54 50 47 39 33 28 31 32 30 32 35 37 39 43 43 40 37 39 43 49 51 51
8 9 3 7 6 6 8 9 15 19 16 14 26 22 14 15 15 26 24 23 38 51 54 50 41 33 31 29 26 26 29 35 38 42 45 47 48 42 37 40 45 49 53 55
6 4 4 8 3 12 13 8 15 29 16 30 40 50 14 43 35 25 27 26 35 42 40 32 24 27 26 23 22 26 32 36 42 47 49 53 48 41 41 45 47 52 54 55
9 11 6 11 8 11 18 21 33 11 10 22 21 42 6 8 17 30 39 39 48 47 38 28 24 24 21 19 23 29 31 38 46 50 52 53 46 45 45 48 53 55 56 56
10 9 5 7 7 6 11 7 11 26 19 29 25 29 14 13 18 21 30 39 43 51 39 31 25 21 18 22 27 32 35 37 40 49 53 49 48 50 52 54 57 56 57 57
4 9 4 7 7 17 11 6 12 15 18 21 39 36 23 24 24 50 41 34 27 31 27 25 22 18 19 25 30 33 34 33 38 46 49 50 51 56 57 59 58 56 58 57
7 9 7 6 10 14 11 6 9 7 10 6 27 22 12 13 3 9 6 34 34 12 24 23 19 19 20 22 30 35 35 39 48 48 51 52 54 58 58 60 59 59 58 56
7 1 11 3 8 19 13 9 14 11 14 2 2 13 18 11 19 3 14 9 26 27 27 26 22 22 23 24 31 39 46 50 50 55 61 62 60 58 58 61 59 56 54 55
17 17 9 6 3 20 29 15 13 8 7 14 19 21 21 34 19 16 5 4 11 21 27 31 32 30 30 34 40 46 53 59 64 69 75 73 63 58 59 60 57 55 54 55
5 15 13 22 18 6 55 11 37 4 4 25 12 28 31 26 23 15 19 17 20 26 34 43 43 41 38 42 47 55 61 68 72 74 74 67 57 57 58 58 56 56 54 55
9 13 5 3 11 32 40 47 41 39 44 45 46 42 31 25 26 25 27 29 29 33 39 42 44 45 47 51 55 60 67 72 73 76 71 63 59 56 56 57 57 57 55 55
10 22 12 12 15 27 33 22 21 24 23 24 23 20 19 22 29 32 33 33 34 35 36 39 43 48 53 58 62 65 70 71 72 70 66 59 56 52 54 56 57 58 55 54
24 15 12 16 8 4 2 6 11 13 14 15 14 15 17 17 20 22 24 26 29 33 39 44 48 52 57 60 60 60 62 63 64 64 57 50 47 47 52 56 58 56 55 55
Wind_Direction_850mb
27 76 193 171 67 79 119 149 205 306 346 291 243 263 226 204 208 203 200 199 200 195 187 176 161 131 99 82 73 67 58 53 49 48 44 39 34 34 31 31 29 28 28 27
33 96 58 56 55 89 94 125 231 317 345 37 333 270 232 208 216 209 206 206 207 203 198 192 183 171 146 110 78 61 52 47 40 35 35 31 28 27 27 26 23 22 21 21
126 113 318 120 46 126 50 187 193 264 320 350 324 278 221 223 212 215 218 220 213 211 205 201 196 191 177 140 90 62 48 42 38 36 34 28 23 21 21 21 17 16 14 15
79 326 89 80 82 16 205 118 106 119 83 247 16 282 282 223 224 212 215 216 214 211 208 209 206 201 195 185 134 68 45 38 33 28 24 19 17 16 16 13 11 8 8 10
227 68 72 89 39 336 178 140 105 89 99 342 259 359 267 132 235 224 215 213 214 212 211 210 205 201 202 200 193 114 38 31 26 20 17 14 12 10 9 6 4 3 4 4
109 64 56 101 59 34 147 75 47 62 74 359 256 164 268 200 215 205 206 213 212 208 208 208 205 206 205 205 201 207 7 20 14 10 6 4 2 2 1 359 358 357 357 357
356 113 108 142 90 6 68 65 343 348 8 231 135 142 250 257 228 223 200 206 210 207 205 204 205 206 206 209 209 209 251 347 355 355 354 352 351 352 354 355 355 353 352 353
166 304 164 82 121 169 146 139 159 219 218 283 357 240 255 224 267 245 236 222 210 205 204 206 205 200 203 207 212 215 224 282 343 351 349 347 344 342 343 347 349 349 348 348
117 279 34 42 74 82 218 189 173 102 85 37 230 286 296 240 265 267 221 206 208 202 202 204 201 199 200 205 205 213 230 241 317 337 340 341 340 335 332 336 340 342 342 341
166 13 357 92 95 47 140 194 78 5 224 273 281 281 240 309 309 237 224 211 208 204 200 202 202 202 202 205 209 232 252 253 289 319 329 330 328 324 324 325 330 334 334 333
128 115 327 21 207 176 89 287 31 118 151 184 273 263 215 229 324 285 251 235 214 204 198 201 201 205 210 216 224 247 269 264 274 302 316 323 320 311 310 316 319 325 327 327
206 133 177 219 313 22 164 194 158 137 245 237 157 267 306 264 291 313 268 230 215 202 199 201 202 211 221 232 243 262 268 270 271 289 309 319 318 308 300 303 309 316 321 321
199 269 18 332 348 2 231 208 160 120 110 210 144 267 160 280 293 312 260 223 209 202 200 204 210 221 234 242 249 266 269 270 266 280 302 314 319 310 299 294 302 310 314 315
131 87 173 188 202 138 225 250 194 142 136 173 232 298 273 272 276 283 271 227 211 202 205 212 219 231 244 251 255 264 262 265 265 275 295 310 315 305 293 288 297 305 308 310
117 200 186 273 230 183 226 185 195 203 207 186 273 227 255 241 251 275 265 234 213 210 213 220 223 239 253 254 249 257 264 265 266 274 291 308 308 302 293 292 298 301 305 307
5 232 129 297 282 226 259 185 221 227 237 259 266 275 200 264 265 265 266 237 218 211 208 207 227 244 244 239 251 264 271 272 268 278 288 304 302 300 297 297 298 299 302 303
136 137 96 271 337 320 292 206 204 190 204 214 229 252 209 263 235 258 267 246 230 217 212 245 249 236 236 249 264 269 273 269 272 275 289 297 297 297 300 300 298 300 300 299
134 95 78 229 356 299 253 172 167 210 237 217 261 261 248 261 295 286 270 257 245 231 237 236 227 223 237 262 274 279 278 276 273 280 291 296 295 294 296 300 300 298 296 295
99 117 79 146 202 296 290 184 159 165 276 215 227 255 266 273 295 278 254 234 235 222 231 215 208 229 258 279 286 289 285 281 285 295 302 300 293 287 289 295 299 296 293 291
75 66 125 99 161 232 234 243 186 146 301 272 210 248 201 162 37 269 294 225 212 231 208 210 226 251 277 290 284 288 289 289 292 304 303 300 289 282 283 292 294 293 289 287
138 348 181 189 233 284 232 164 141 92 239 335 351 274 196 197 223 268 78 115 214 235 229 221 241 266 279 280 279 284 288 292 295 296 298 298 289 283 283 288 289 290 285 286
165 156 186 90 104 282 163 117 178 216 103 43 23 356 284 269 276 193 184 240 240 245 234 235 248 257 267 279 282 284 290 296 297 298 300 299 286 278 280 285 285 284 282 284
245 187 183 188 207 245 185 214 214 151 292 329 319 330 324 296 222 247 249 251 255 252 245 248 253 258 266 277 285 289 294 296 297 298 300 296 283 275 278 280 281 279 281 284
252 170 200 108 232 230 235 238 253 273 285 285 285 293 288 271 256 259 266 273 273 271 265 263 268 273 278 284 292 297 300 300 300 300 299 292 280 276 275 277 279 279 280 282
171 143 185 265 277 274 262 264 271 283 276 276 288 285 279 272 270 276 279 279 280 282 282 286 291 293 296 298 299 301 302 302 301 299 296 288 280 274 273 276 278 275 275 278
184 183 186 244 163 175 155 279 313 303 313 316 312 300 295 295 292 293 295 293 293 293 293 294 297 300 300 301 303 305 304 304 302 298 296 287 278 274 274 276 273 272 276 279